Flag for U.S.A. Weather past 2 weeks in Irving, Texas, U.S.A.

Now
80 °F

Partly cloudy.


Feels Like: 83 °F
Forecast: 74 / 89 °F
Wind: 8 mph from South

Location: Dallas / Fort Worth International Airport

Current Time: Sep 17, 2014 at 2:45:32 AM

Latest Report: Sep 17, 2014 at 1:53 AM


Visibility: 10 mi

Pressure: 29.96 "Hg

Humidity: 71%

Dew point: 70 °F

Location of IrvingLocation

Historic Weather in Irving — Graph

°F

Irving temperature yesterday

Maximum temperature yesterday: 90 °F (at 3:53 PM)
Minimum temperature yesterday: 75 °F (at 6:53 AM)
Average temperature yesterday: 82 °F

Past Weeks' High & Low Weather Summary

 TemperatureHumidityPressure
High101 °F (Sep 10, 3:53 PM)94% (Sep 14, 9:53 AM)30.28 "Hg (Sep 14, 9:53 AM)
Low56 °F (Sep 13, 6:53 AM)33% (Sep 10, 3:53 PM)29.70 "Hg (Sep 10, 4:53 PM)
Average81 °F64%29.99 "Hg
* Reported Sep 2 1:53 AM — Sep 17 1:53 AM, Irving, Weather by CustomWeather, © 2014

Note: Actual official high and low records may vary slightly from our data, if they occured in-between our weather recording intervals... More about our weather records

Advertising

Irving weather history for previous 24 hours

 ConditionsComfort  
Time TempWeatherWind HumidityBarometerVisibility
1:53 AM
Sep 17
80 °FPartly cloudy.8 mph71%29.96 "Hg10 mi
12:53 AM80 °FPartly cloudy.6 mph69%29.96 "Hg10 mi
11:53 PM
Sep 16
82 °FPassing clouds.8 mph65%29.98 "Hg10 mi
10:53 PM83 °FPassing clouds.9 mph61%29.99 "Hg10 mi
9:53 PM83 °FPassing clouds.6 mph59%29.98 "Hg10 mi
8:53 PM84 °FPassing clouds.6 mph53%29.97 "Hg10 mi
7:53 PM85 °FPartly sunny.6 mph51%29.95 "Hg10 mi
6:53 PM89 °FPartly sunny.5 mph45%29.94 "Hg10 mi
5:53 PM90 °FPartly sunny.6 mph43%29.94 "Hg10 mi
4:53 PM90 °FPartly sunny.No wind45%29.96 "Hg10 mi
3:53 PM90 °FMostly cloudy.6 mph47%29.98 "Hg10 mi
2:53 PM89 °FBroken clouds.5 mph46%30.01 "Hg10 mi
1:53 PM89 °FBroken clouds.6 mph50%30.03 "Hg10 mi
12:53 PM86 °FBroken clouds.No wind55%30.05 "Hg10 mi
11:53 AM84 °FBroken clouds.No wind61%30.08 "Hg10 mi
10:53 AM83 °FBroken clouds.3 mph65%30.10 "Hg10 mi
9:53 AM82 °FBroken clouds.3 mph70%30.10 "Hg10 mi
8:53 AM78 °FBroken clouds.5 mph76%30.09 "Hg10 mi
7:53 AM76 °FPassing clouds.No wind80%30.09 "Hg10 mi
6:53 AM75 °FClear.No wind82%30.08 "Hg10 mi
5:53 AM76 °FPartly cloudy.No wind77%30.07 "Hg10 mi
4:53 AM76 °FPartly cloudy.3 mph77%30.07 "Hg10 mi
3:53 AM76 °FPassing clouds.3 mph77%30.07 "Hg10 mi
2:53 AM78 °FPassing clouds.No wind74%30.08 "Hg10 mi
Weather by CustomWeather, © 2014

See weather overviewHow to use our weather pages